sat.trackr.live / text

‹ back to catalog

KUIPER-00502

NORAD 68883 · 2026-095V

PAYLOAD ACTIVE UNKNOWN

§ Identity

Operator
Country
US
Launch date
2026-04-28
Launch site
AFETR
Launch vehicle
Mass (kg)
RCS (m²)

External: N2YO · Heavens-Above · Gunter

§ Orbital elements

Epoch: 2026-09-19T10:54:06.176160Z

Period
97.30 min
Inclination
51.8996°
Eccentricity
0.0001395
Mean motion
14.79933280 rev/d
Perigee alt
628.6 km
Apogee alt
630.5 km
Semi-major
7,007.7 km
B*
3.3188e-4
RAAN
170.0666°
Arg perigee
71.5000°
Mean anomaly
288.6114°
Rev number
2,190

§ Raw data

KUIPER-005021 68883U 26095V   26262.45423815  .00002310  00000+0  33188-3 0  99962 68883  51.8996 170.0666 0001395  71.5000 288.6114 14.79933280 21908

JSON: /api/v1/satellites/68883 · /tle

For live sub-satellite position, see the globe view (requires WebGL).

§ Visibility from observer

Set your observer location to see the next 7 days of passes ≥ 10°. The values pass through the URL so the page stays shareable.

No JS? Fill the form by hand. The geolocation button needs JavaScript.